{"data":{"norad_id":55920,"intl_designator":"2023-037G","name":"STARLINK-5862","alt_names":[],"object_type":"PAYLOAD","status":"ACTIVE","operator":null,"country":"US","launch_date":"2023-03-17","launch_site_code":"AFWTR","launch_vehicle":null,"mission":null,"orbit_class":"UNKNOWN","rcs_meters":null,"size_class":null,"mass_kg":null,"dimensions":null,"purposes":["comms"],"wikipedia_slug":null,"has_3d_model":false,"image_url":null,"decayed_at":null,"tle_current":{"epoch":"2026-05-25T02:50:45.184992Z","epoch_age_seconds":60946,"freshness":"FRESH","line1":"1 55920U 23037G   26145.11857853  .00000443  00000+0  44941-4 0  9998","line2":"2 55920  69.9995  91.9488 0003027 267.4438  92.6374 14.98323655175421","mean_motion":14.98323655,"eccentricity":0.0003027,"inclination_deg":69.9995,"raan_deg":91.9488,"arg_perigee_deg":267.4438,"mean_anomaly_deg":92.6374,"bstar":4.4941e-5,"rev_number":17542,"period_min":96.107406113134,"perigee_km":569.97168307525,"apogee_km":574.17934173026,"semimajor_km":6950.2125124028,"source":"CELESTRAK","updated_at":"2026-05-25T13:38:17.889862Z"}}}